• en Belgique
  • Liste des pays
  • À 7 jours
  • Température de l'eau
  • Carte satellitaire
  • Carte météo
  • Widgets météo
  • user-avatar
    Se connecter

    Météo par heure à Hasselt

    Ce jour, 18 Août, Samedi

    Heure Température Précipitation Vent Pression Humidité
    00:00 +15°C° 0 mm 1 m/s 763 mmHg 74%
    01:00 +14°C° 0 mm 1 m/s 763 mmHg 76%
    02:00 +14°C° 0 mm 1 m/s 763 mmHg 78%
    03:00 +14°C° 0 mm 2 m/s 763 mmHg 80%
    04:00 +14°C° 0 mm 2 m/s 763 mmHg 80%
    05:00 +15°C° 0 mm 2 m/s 763 mmHg 79%
    06:00 +15°C° 0 mm 2 m/s 763 mmHg 78%
    07:00 +17°C° 0 mm 3 m/s 763 mmHg 71%
    08:00 +19°C° 0 mm 3 m/s 763 mmHg 65%
    09:00 +21°C° 0 mm 3 m/s 764 mmHg 58%
    10:00 +22°C° 0 mm 3 m/s 763 mmHg 55%
    11:00 +24°C° 0 mm 3 m/s 763 mmHg 52%
    12:00 +25°C° 0 mm 3 m/s 763 mmHg 49%
    13:00 +25°C° 0 mm 3 m/s 763 mmHg 50%
    14:00 +25°C° 0 mm 3 m/s 763 mmHg 52%
    15:00 +25°C° 0 mm 4 m/s 762 mmHg 54%
    16:00 +24°C° 0 mm 3 m/s 763 mmHg 59%
    17:00 +22°C° 0 mm 3 m/s 763 mmHg 64%
    18:00 +23°C° 0 mm 2 m/s 763 mmHg 69%
    19:00 +20°C° 0 mm 2 m/s 763 mmHg 73%
    20:00 +19°C° 0 mm 2 m/s 763 mmHg 78%
    21:00 +19°C° 0 mm 1 m/s 764 mmHg 82%
    22:00 +18°C° 0 mm 1 m/s 764 mmHg 85%
    23:00 +18°C° 0 mm 1 m/s 764 mmHg 87%

    Demain, 19 Août, Dimanche

    Heure Température Précipitation Vent Pression Humidité
    00:00 +16°C° 0 mm 1 m/s 764 mmHg 89%
    01:00 +16°C° 0 mm 1 m/s 763 mmHg 90%
    02:00 +16°C° 0 mm 1 m/s 763 mmHg 91%
    03:00 +15°C° 0 mm 1 m/s 763 mmHg 92%
    04:00 +16°C° 0 mm 2 m/s 763 mmHg 91%
    05:00 +16°C° 0 mm 2 m/s 763 mmHg 89%
    06:00 +17°C° 0 mm 2 m/s 763 mmHg 87%
    07:00 +18°C° 0 mm 2 m/s 763 mmHg 79%
    08:00 +20°C° 0 mm 2 m/s 763 mmHg 72%
    09:00 +22°C° 0 mm 3 m/s 763 mmHg 64%
    10:00 +24°C° 0 mm 3 m/s 763 mmHg 60%
    11:00 +25°C° 0 mm 3 m/s 763 mmHg 56%
    12:00 +27°C° 0 mm 3 m/s 762 mmHg 52%
    13:00 +27°C° 0 mm 3 m/s 762 mmHg 51%
    14:00 +28°C° 0 mm 3 m/s 762 mmHg 51%
    15:00 +28°C° 0 mm 3 m/s 761 mmHg 51%
    16:00 +27°C° 0 mm 3 m/s 761 mmHg 56%
    17:00 +26°C° 0 mm 2 m/s 761 mmHg 61%
    18:00 +25°C° 0 mm 2 m/s 761 mmHg 66%
    19:00 +24°C° 0 mm 2 m/s 761 mmHg 70%
    20:00 +23°C° 0 mm 2 m/s 761 mmHg 74%
    21:00 +20°C° 0 mm 2 m/s 762 mmHg 78%
    22:00 +20°C° 0 mm 2 m/s 761 mmHg 80%
    23:00 +19°C° 0 mm 2 m/s 761 mmHg 82%

    Après-demain, 20 Août, Lundi

    Heure Température Précipitation Vent Pression Humidité
    00:00 +18°C° 0 mm 2 m/s 761 mmHg 84%
    01:00 +17°C° 0 mm 2 m/s 761 mmHg 87%
    02:00 +17°C° 0 mm 2 m/s 761 mmHg 89%
    03:00 +16°C° 0 mm 2 m/s 761 mmHg 92%
    04:00 +17°C° 0 mm 2 m/s 761 mmHg 91%
    05:00 +17°C° 0 mm 3 m/s 761 mmHg 91%
    06:00 +18°C° 0 mm 3 m/s 761 mmHg 90%
    07:00 +19°C° 0 mm 3 m/s 761 mmHg 86%
    08:00 +20°C° 0 mm 3 m/s 761 mmHg 83%
    09:00 +21°C° 0 mm 3 m/s 761 mmHg 79%
    10:00 +22°C° 0 mm 3 m/s 761 mmHg 76%
    11:00 +24°C° 0 mm 3 m/s 761 mmHg 74%
    12:00 +24°C° 0 mm 3 m/s 761 mmHg 71%
    13:00 +25°C° 0 mm 3 m/s 761 mmHg 68%
    14:00 +25°C° 0 mm 4 m/s 761 mmHg 65%
    15:00 +26°C° 0 mm 4 m/s 761 mmHg 63%
    16:00 +25°C° 0 mm 3 m/s 761 mmHg 65%
    17:00 +25°C° 0 mm 3 m/s 761 mmHg 68%
    18:00 +24°C° 0 mm 2 m/s 761 mmHg 71%
    19:00 +21°C° 0 mm 2 m/s 761 mmHg 75%
    20:00 +21°C° 0 mm 1 m/s 761 mmHg 80%
    21:00 +19°C° 0 mm 1 m/s 762 mmHg 85%
    22:00 +19°C° 0 mm 1 m/s 762 mmHg 86%
    23:00 +19°C° 0 mm 1 m/s 762 mmHg 88%

    21 Août, Mardi

    Heure Température Précipitation Vent Pression Humidité
    00:00 +19°C° 0 mm 1 m/s 762 mmHg 89%
    01:00 +17°C° 0 mm 2 m/s 761 mmHg 90%
    02:00 +17°C° 0 mm 2 m/s 761 mmHg 92%
    03:00 +17°C° 0 mm 2 m/s 761 mmHg 93%
    04:00 +18°C° 0 mm 2 m/s 761 mmHg 92%
    05:00 +18°C° 0 mm 3 m/s 761 mmHg 90%
    06:00 +19°C° 0 mm 3 m/s 761 mmHg 89%
    07:00 +21°C° 0 mm 3 m/s 761 mmHg 82%
    08:00 +22°C° 0 mm 3 m/s 762 mmHg 76%
    09:00 +25°C° 0 mm 3 m/s 762 mmHg 69%
    10:00 +26°C° 0,1 mm 3 m/s 761 mmHg 65%
    11:00 +27°C° 0,1 mm 3 m/s 761 mmHg 62%
    12:00 +28°C° 0,1 mm 4 m/s 761 mmHg 58%
    13:00 +28°C° 0,1 mm 4 m/s 761 mmHg 57%
    14:00 +28°C° 0,1 mm 4 m/s 760 mmHg 56%
    15:00 +29°C° 0,1 mm 4 m/s 760 mmHg 55%
    16:00 +28°C° 0 mm 3 m/s 760 mmHg 60%
    17:00 +27°C° 0 mm 3 m/s 760 mmHg 64%
    18:00 +25°C° 0 mm 2 m/s 760 mmHg 68%
    19:00 +24°C° 0 mm 2 m/s 760 mmHg 74%
    20:00 +21°C° 0 mm 2 m/s 761 mmHg 80%
    21:00 +20°C° 0 mm 2 m/s 761 mmHg 86%
    22:00 +20°C° 0 mm 1 m/s 761 mmHg 88%
    23:00 +20°C° 0 mm 1 m/s 761 mmHg 89%

    22 Août, Mercredi

    Heure Température Précipitation Vent Pression Humidité
    00:00 +20°C° 0 mm 1 m/s 761 mmHg 91%
    01:00 +20°C° 0 mm 1 m/s 761 mmHg 91%
    02:00 +20°C° 0 mm 1 m/s 761 mmHg 91%
    03:00 +19°C° 0 mm 2 m/s 761 mmHg 91%
    04:00 +19°C° 0 mm 2 m/s 761 mmHg 91%
    05:00 +19°C° 0 mm 2 m/s 761 mmHg 90%
    06:00 +19°C° 0 mm 2 m/s 762 mmHg 89%
    07:00 +21°C° 0 mm 2 m/s 762 mmHg 81%
    08:00 +23°C° 0 mm 2 m/s 762 mmHg 72%
    09:00 +24°C° 0 mm 2 m/s 762 mmHg 64%
    10:00 +26°C° 0,1 mm 2 m/s 762 mmHg 59%
    11:00 +27°C° 0,1 mm 2 m/s 762 mmHg 53%
    12:00 +28°C° 0,1 mm 2 m/s 762 mmHg 48%
    13:00 +28°C° 0 mm 3 m/s 761 mmHg 47%
    14:00 +28°C° 0 mm 3 m/s 761 mmHg 46%
    15:00 +28°C° 0 mm 3 m/s 761 mmHg 46%
    16:00 +27°C° 0 mm 3 m/s 761 mmHg 50%
    17:00 +26°C° 0 mm 3 m/s 761 mmHg 54%
    18:00 +25°C° 0 mm 2 m/s 761 mmHg 59%
    19:00 +23°C° 0 mm 2 m/s 761 mmHg 62%
    20:00 +21°C° 0 mm 2 m/s 762 mmHg 65%
    21:00 +19°C° 0 mm 2 m/s 762 mmHg 68%
    22:00 +19°C° 0 mm 2 m/s 762 mmHg 69%
    23:00 +18°C° 0 mm 2 m/s 762 mmHg 70%

    23 Août, Jeudi

    Heure Température Précipitation Vent Pression Humidité
    00:00 +18°C° 0 mm 2 m/s 762 mmHg 71%
    01:00 +17°C° 0 mm 2 m/s 761 mmHg 72%
    02:00 +17°C° 0 mm 2 m/s 761 mmHg 72%
    03:00 +18°C° 0 mm 1 m/s 761 mmHg 73%
    04:00 +18°C° 0 mm 1 m/s 761 mmHg 72%
    05:00 +19°C° 0 mm 1 m/s 760 mmHg 71%
    06:00 +20°C° 0 mm 1 m/s 760 mmHg 70%
    07:00 +22°C° 0 mm 1 m/s 760 mmHg 64%
    08:00 +24°C° 0 mm 1 m/s 760 mmHg 57%
    09:00 +26°C° 0 mm 2 m/s 760 mmHg 51%
    10:00 +27°C° 0 mm 2 m/s 759 mmHg 49%
    11:00 +28°C° 0 mm 2 m/s 759 mmHg 46%
    12:00 +30°C° 0 mm 2 m/s 758 mmHg 43%
    13:00 +29°C° 0,1 mm 2 m/s 758 mmHg 45%
    14:00 +29°C° 0,1 mm 2 m/s 757 mmHg 47%
    15:00 +29°C° 0,1 mm 1 m/s 757 mmHg 49%
    16:00 +28°C° 0,1 mm 1 m/s 757 mmHg 53%
    17:00 +27°C° 0,1 mm 1 m/s 756 mmHg 58%
    18:00 +26°C° 0,1 mm 1 m/s 756 mmHg 62%
    19:00 +25°C° 0,1 mm 1 m/s 756 mmHg 67%
    20:00 +23°C° 0,1 mm 2 m/s 756 mmHg 72%
    21:00 +21°C° 0,1 mm 2 m/s 756 mmHg 78%
    22:00 +20°C° 0 mm 2 m/s 756 mmHg 81%
    23:00 +20°C° 0 mm 2 m/s 755 mmHg 83%
    Voir plus